owner,sensor,date,latitude,longitude,air_temperature,qcFlag 
COMPS,ioos:station:USF.COMPS:BGC:1,2009-11-01T00:00:00Z,26.4040,-81.8810,27.3,1111122 
COMPS,ioos:station:USF.COMPS:BGC:1,2009-11-01T00:06:00Z,26.4040,-81.8810,24.89,1111122 
COMPS,ioos:station:USF.COMPS:BGC:1,2009-11-01T00:12:00Z,26.4040,-81.8810,27.2,1111122 
COMPS,ioos:station:USF.COMPS:BGC:1,2009-11-01T00:18:00Z,26.4040,-81.8810,27.2,1111122 
COMPS,ioos:station:USF.COMPS:BGC:1,2009-11-01T00:24:00Z,26.4040,-81.8810,27.14,1111122 
COMPS,ioos:station:USF.COMPS:BGC:1,2009-11-01T00:30:00Z,26.4040,-81.8810,27.11,1111122 
COMPS,ioos:station:USF.COMPS:BGC:1,2009-11-01T00:36:00Z,26.4040,-81.8810,27.14,1111122 
COMPS,ioos:station:USF.COMPS:BGC:1,2009-11-01T00:42:00Z,26.4040,-81.8810,27.16,1111122 
COMPS,ioos:station:USF.COMPS:BGC:1,2009-11-01T00:48:00Z,26.4040,-81.8810,27.15,1111122 
COMPS,ioos:station:USF.COMPS:BGC:1,2009-11-01T00:54:00Z,26.4040,-81.8810,27.14,1111122 
COMPS,ioos:station:USF.COMPS:BGC:1,2009-11-01T01:00:00Z,26.4040,-81.8810,27.12,1111122 
COMPS,ioos:station:USF.COMPS:BGC:1,2009-11-01T01:06:00Z,26.4040,-81.8810,27.1,1111122 
COMPS,ioos:station:USF.COMPS:BGC:1,2009-11-01T01:12:00Z,26.4040,-81.8810,27.1,1111122 
COMPS,ioos:station:USF.COMPS:BGC:1,2009-11-01T01:18:00Z,26.4040,-81.8810,27.03,1111122 
COMPS,ioos:station:USF.COMPS:BGC:1,2009-11-01T01:24:00Z,26.4040,-81.8810,26.99,1111122 
COMPS,ioos:station:USF.COMPS:BGC:1,2009-11-01T01:30:00Z,26.4040,-81.8810,27.0,1111122 
COMPS,ioos:station:USF.COMPS:BGC:1,2009-11-01T01:36:00Z,26.4040,-81.8810,26.95,1111122 
COMPS,ioos:station:USF.COMPS:BGC:1,2009-11-01T01:42:00Z,26.4040,-81.8810,26.95,1111122 
COMPS,ioos:station:USF.COMPS:BGC:1,2009-11-01T01:48:00Z,26.4040,-81.8810,26.97,1111122 
COMPS,ioos:station:USF.COMPS:BGC:1,2009-11-01T01:54:00Z,26.4040,-81.8810,26.96,1111122 
COMPS,ioos:station:USF.COMPS:BGC:1,2009-11-01T02:00:00Z,26.4040,-81.8810,26.83,1111122 
COMPS,ioos:station:USF.COMPS:BGC:1,2009-11-01T02:06:00Z,26.4040,-81.8810,26.76,1111122 
COMPS,ioos:station:USF.COMPS:BGC:1,2009-11-01T02:12:00Z,26.4040,-81.8810,26.68,1111122 
COMPS,ioos:station:USF.COMPS:BGC:1,2009-11-01T02:18:00Z,26.4040,-81.8810,26.69,1111122 
COMPS,ioos:station:USF.COMPS:BGC:1,2009-11-01T02:24:00Z,26.4040,-81.8810,26.61,1111122 
COMPS,ioos:station:USF.COMPS:BGC:1,2009-11-01T02:30:00Z,26.4040,-81.8810,26.36,1111122 
COMPS,ioos:station:USF.COMPS:BGC:1,2009-11-01T02:36:00Z,26.4040,-81.8810,26.3,1111122 
COMPS,ioos:station:USF.COMPS:BGC:1,2009-11-01T02:42:00Z,26.4040,-81.8810,26.28,1111122 
COMPS,ioos:station:USF.COMPS:BGC:1,2009-11-01T02:48:00Z,26.4040,-81.8810,26.21,1111122 
COMPS,ioos:station:USF.COMPS:BGC:1,2009-11-01T02:54:00Z,26.4040,-81.8810,26.19,1111122 
COMPS,ioos:station:USF.COMPS:BGC:1,2009-11-01T03:00:00Z,26.4040,-81.8810,26.21,1111122 
COMPS,ioos:station:USF.COMPS:BGC:1,2009-11-01T03:06:00Z,26.4040,-81.8810,26.24,1111122 
COMPS,ioos:station:USF.COMPS:BGC:1,2009-11-01T03:12:00Z,26.4040,-81.8810,26.25,1111122 
COMPS,ioos:station:USF.COMPS:BGC:1,2009-11-01T03:18:00Z,26.4040,-81.8810,26.18,1111122 
COMPS,ioos:station:USF.COMPS:BGC:1,2009-11-01T03:24:00Z,26.4040,-81.8810,26.13,1111122 
COMPS,ioos:station:USF.COMPS:BGC:1,2009-11-01T03:30:00Z,26.4040,-81.8810,26.11,1111122 
COMPS,ioos:station:USF.COMPS:BGC:1,2009-11-01T03:36:00Z,26.4040,-81.8810,26.12,1111122 
COMPS,ioos:station:USF.COMPS:BGC:1,2009-11-01T03:42:00Z,26.4040,-81.8810,26.15,1111122 
COMPS,ioos:station:USF.COMPS:BGC:1,2009-11-01T03:48:00Z,26.4040,-81.8810,26.12,1111122 
COMPS,ioos:station:USF.COMPS:BGC:1,2009-11-01T03:54:00Z,26.4040,-81.8810,26.14,1111122 
COMPS,ioos:station:USF.COMPS:BGC:1,2009-11-01T04:00:00Z,26.4040,-81.8810,26.1,1111122 
COMPS,ioos:station:USF.COMPS:BGC:1,2009-11-01T04:06:00Z,26.4040,-81.8810,26.07,1111122 
COMPS,ioos:station:USF.COMPS:BGC:1,2009-11-01T04:12:00Z,26.4040,-81.8810,26.18,1111122 
COMPS,ioos:station:USF.COMPS:BGC:1,2009-11-01T04:18:00Z,26.4040,-81.8810,26.25,1111122 
COMPS,ioos:station:USF.COMPS:BGC:1,2009-11-01T04:24:00Z,26.4040,-81.8810,26.1,1111122 
COMPS,ioos:station:USF.COMPS:BGC:1,2009-11-01T04:30:00Z,26.4040,-81.8810,25.97,1111122 
COMPS,ioos:station:USF.COMPS:BGC:1,2009-11-01T04:36:00Z,26.4040,-81.8810,26.01,1111122 
COMPS,ioos:station:USF.COMPS:BGC:1,2009-11-01T04:42:00Z,26.4040,-81.8810,26.18,1111122 
COMPS,ioos:station:USF.COMPS:BGC:1,2009-11-01T04:48:00Z,26.4040,-81.8810,26.13,1111122 
COMPS,ioos:station:USF.COMPS:BGC:1,2009-11-01T04:54:00Z,26.4040,-81.8810,26.16,1111122 
COMPS,ioos:station:USF.COMPS:BGC:1,2009-11-01T05:00:00Z,26.4040,-81.8810,26.19,1111122 
COMPS,ioos:station:USF.COMPS:BGC:1,2009-11-01T05:06:00Z,26.4040,-81.8810,26.24,1111122 
COMPS,ioos:station:USF.COMPS:BGC:1,2009-11-01T05:12:00Z,26.4040,-81.8810,26.24,1111122 
COMPS,ioos:station:USF.COMPS:BGC:1,2009-11-01T05:18:00Z,26.4040,-81.8810,26.19,1111122 
COMPS,ioos:station:USF.COMPS:BGC:1,2009-11-01T05:24:00Z,26.4040,-81.8810,25.97,1111122 
COMPS,ioos:station:USF.COMPS:BGC:1,2009-11-01T05:30:00Z,26.4040,-81.8810,25.79,1111122 
COMPS,ioos:station:USF.COMPS:BGC:1,2009-11-01T05:36:00Z,26.4040,-81.8810,25.7,1111122 
COMPS,ioos:station:USF.COMPS:BGC:1,2009-11-01T05:42:00Z,26.4040,-81.8810,25.7,1111122 
COMPS,ioos:station:USF.COMPS:BGC:1,2009-11-01T05:48:00Z,26.4040,-81.8810,25.69,1111122 
COMPS,ioos:station:USF.COMPS:BGC:1,2009-11-01T05:54:00Z,26.4040,-81.8810,25.76,1111122 
COMPS,ioos:station:USF.COMPS:BGC:1,2009-11-01T06:00:00Z,26.4040,-81.8810,25.83,1111122 
COMPS,ioos:station:USF.COMPS:BGC:1,2009-11-01T06:06:00Z,26.4040,-81.8810,25.95,1111122 
COMPS,ioos:station:USF.COMPS:BGC:1,2009-11-01T06:12:00Z,26.4040,-81.8810,25.96,1111122 
COMPS,ioos:station:USF.COMPS:BGC:1,2009-11-01T06:18:00Z,26.4040,-81.8810,25.96,1111122 
COMPS,ioos:station:USF.COMPS:BGC:1,2009-11-01T06:24:00Z,26.4040,-81.8810,25.79,1111122 
COMPS,ioos:station:USF.COMPS:BGC:1,2009-11-01T06:30:00Z,26.4040,-81.8810,25.74,1111122 
COMPS,ioos:station:USF.COMPS:BGC:1,2009-11-01T06:36:00Z,26.4040,-81.8810,25.76,1111122 
COMPS,ioos:station:USF.COMPS:BGC:1,2009-11-01T06:42:00Z,26.4040,-81.8810,25.79,1111122 
COMPS,ioos:station:USF.COMPS:BGC:1,2009-11-01T06:48:00Z,26.4040,-81.8810,25.78,1111122 
COMPS,ioos:station:USF.COMPS:BGC:1,2009-11-01T06:54:00Z,26.4040,-81.8810,25.76,1111122 
COMPS,ioos:station:USF.COMPS:BGC:1,2009-11-01T07:00:00Z,26.4040,-81.8810,25.76,1111122 
COMPS,ioos:station:USF.COMPS:BGC:1,2009-11-01T07:06:00Z,26.4040,-81.8810,25.67,1111122 
COMPS,ioos:station:USF.COMPS:BGC:1,2009-11-01T07:12:00Z,26.4040,-81.8810,25.74,1111122 
COMPS,ioos:station:USF.COMPS:BGC:1,2009-11-01T07:18:00Z,26.4040,-81.8810,25.71,1111122 
COMPS,ioos:station:USF.COMPS:BGC:1,2009-11-01T07:24:00Z,26.4040,-81.8810,25.74,1111122 
COMPS,ioos:station:USF.COMPS:BGC:1,2009-11-01T07:30:00Z,26.4040,-81.8810,25.74,1111122 
COMPS,ioos:station:USF.COMPS:BGC:1,2009-11-01T07:36:00Z,26.4040,-81.8810,25.71,1111122 
COMPS,ioos:station:USF.COMPS:BGC:1,2009-11-01T07:42:00Z,26.4040,-81.8810,25.66,1111122 
COMPS,ioos:station:USF.COMPS:BGC:1,2009-11-01T07:48:00Z,26.4040,-81.8810,25.66,1111122 
COMPS,ioos:station:USF.COMPS:BGC:1,2009-11-01T07:54:00Z,26.4040,-81.8810,25.64,1111122 
COMPS,ioos:station:USF.COMPS:BGC:1,2009-11-01T08:00:00Z,26.4040,-81.8810,25.57,1111122 
COMPS,ioos:station:USF.COMPS:BGC:1,2009-11-01T08:06:00Z,26.4040,-81.8810,25.54,1111122 
COMPS,ioos:station:USF.COMPS:BGC:1,2009-11-01T08:12:00Z,26.4040,-81.8810,25.53,1111122 
COMPS,ioos:station:USF.COMPS:BGC:1,2009-11-01T08:18:00Z,26.4040,-81.8810,25.57,1111122 
COMPS,ioos:station:USF.COMPS:BGC:1,2009-11-01T08:24:00Z,26.4040,-81.8810,25.6,1111122 
COMPS,ioos:station:USF.COMPS:BGC:1,2009-11-01T08:30:00Z,26.4040,-81.8810,25.61,1111122 
COMPS,ioos:station:USF.COMPS:BGC:1,2009-11-01T08:36:00Z,26.4040,-81.8810,25.54,1111122 
COMPS,ioos:station:USF.COMPS:BGC:1,2009-11-01T08:42:00Z,26.4040,-81.8810,25.55,1111122 
COMPS,ioos:station:USF.COMPS:BGC:1,2009-11-01T08:48:00Z,26.4040,-81.8810,25.48,1111122 
COMPS,ioos:station:USF.COMPS:BGC:1,2009-11-01T08:54:00Z,26.4040,-81.8810,25.45,1111122 
COMPS,ioos:station:USF.COMPS:BGC:1,2009-11-01T09:00:00Z,26.4040,-81.8810,25.43,1111122 
COMPS,ioos:station:USF.COMPS:BGC:1,2009-11-01T09:06:00Z,26.4040,-81.8810,25.31,1111122 
COMPS,ioos:station:USF.COMPS:BGC:1,2009-11-01T09:12:00Z,26.4040,-81.8810,25.22,1111122 
COMPS,ioos:station:USF.COMPS:BGC:1,2009-11-01T09:18:00Z,26.4040,-81.8810,25.18,1111122 
COMPS,ioos:station:USF.COMPS:BGC:1,2009-11-01T09:24:00Z,26.4040,-81.8810,25.12,1111122 
COMPS,ioos:station:USF.COMPS:BGC:1,2009-11-01T09:30:00Z,26.4040,-81.8810,25.11,1111122 
COMPS,ioos:station:USF.COMPS:BGC:1,2009-11-01T09:36:00Z,26.4040,-81.8810,25.07,1111122 
COMPS,ioos:station:USF.COMPS:BGC:1,2009-11-01T09:42:00Z,26.4040,-81.8810,25.0,1111122 
COMPS,ioos:station:USF.COMPS:BGC:1,2009-11-01T09:48:00Z,26.4040,-81.8810,24.97,1111122 
COMPS,ioos:station:USF.COMPS:BGC:1,2009-11-01T09:54:00Z,26.4040,-81.8810,24.95,1111122 
COMPS,ioos:station:USF.COMPS:BGC:1,2009-11-01T10:00:00Z,26.4040,-81.8810,24.88,1111122 
COMPS,ioos:station:USF.COMPS:BGC:1,2009-11-01T10:06:00Z,26.4040,-81.8810,24.87,1111122 
COMPS,ioos:station:USF.COMPS:BGC:1,2009-11-01T10:12:00Z,26.4040,-81.8810,24.95,1111122 
COMPS,ioos:station:USF.COMPS:BGC:1,2009-11-01T10:18:00Z,26.4040,-81.8810,24.91,1111122 
COMPS,ioos:station:USF.COMPS:BGC:1,2009-11-01T10:24:00Z,26.4040,-81.8810,24.8,1111122 
COMPS,ioos:station:USF.COMPS:BGC:1,2009-11-01T10:30:00Z,26.4040,-81.8810,24.84,1111122 
COMPS,ioos:station:USF.COMPS:BGC:1,2009-11-01T10:36:00Z,26.4040,-81.8810,24.83,1111122 
COMPS,ioos:station:USF.COMPS:BGC:1,2009-11-01T10:42:00Z,26.4040,-81.8810,24.77,1111122 
COMPS,ioos:station:USF.COMPS:BGC:1,2009-11-01T10:48:00Z,26.4040,-81.8810,24.79,1111122 
COMPS,ioos:station:USF.COMPS:BGC:1,2009-11-01T10:54:00Z,26.4040,-81.8810,24.84,1111122 
COMPS,ioos:station:USF.COMPS:BGC:1,2009-11-01T11:00:00Z,26.4040,-81.8810,24.85,1111122 
COMPS,ioos:station:USF.COMPS:BGC:1,2009-11-01T11:06:00Z,26.4040,-81.8810,24.75,1111122 
COMPS,ioos:station:USF.COMPS:BGC:1,2009-11-01T11:12:00Z,26.4040,-81.8810,24.84,1111122 
COMPS,ioos:station:USF.COMPS:BGC:1,2009-11-01T11:18:00Z,26.4040,-81.8810,24.72,1111122 
COMPS,ioos:station:USF.COMPS:BGC:1,2009-11-01T11:24:00Z,26.4040,-81.8810,24.62,1111122 
COMPS,ioos:station:USF.COMPS:BGC:1,2009-11-01T11:30:00Z,26.4040,-81.8810,24.62,1111122 
COMPS,ioos:station:USF.COMPS:BGC:1,2009-11-01T11:36:00Z,26.4040,-81.8810,24.56,1111122 
COMPS,ioos:station:USF.COMPS:BGC:1,2009-11-01T11:42:00Z,26.4040,-81.8810,24.42,1111122 
COMPS,ioos:station:USF.COMPS:BGC:1,2009-11-01T11:48:00Z,26.4040,-81.8810,24.41,1111122 
COMPS,ioos:station:USF.COMPS:BGC:1,2009-11-01T11:54:00Z,26.4040,-81.8810,24.58,1111122 
COMPS,ioos:station:USF.COMPS:BGC:1,2009-11-01T13:00:00Z,26.4040,-81.8810,25.1,1111122 
COMPS,ioos:station:USF.COMPS:BGC:1,2009-11-01T13:06:00Z,26.4040,-81.8810,25.01,1111122 
COMPS,ioos:station:USF.COMPS:BGC:1,2009-11-01T13:12:00Z,26.4040,-81.8810,24.99,1111122 
COMPS,ioos:station:USF.COMPS:BGC:1,2009-11-01T13:18:00Z,26.4040,-81.8810,25.08,1111122 
COMPS,ioos:station:USF.COMPS:BGC:1,2009-11-01T13:24:00Z,26.4040,-81.8810,25.14,1111122 
COMPS,ioos:station:USF.COMPS:BGC:1,2009-11-01T13:30:00Z,26.4040,-81.8810,25.26,1111122 
COMPS,ioos:station:USF.COMPS:BGC:1,2009-11-01T13:36:00Z,26.4040,-81.8810,25.42,1111122 
COMPS,ioos:station:USF.COMPS:BGC:1,2009-11-01T13:42:00Z,26.4040,-81.8810,25.55,1111122 
COMPS,ioos:station:USF.COMPS:BGC:1,2009-11-01T13:48:00Z,26.4040,-81.8810,25.63,1111122 
COMPS,ioos:station:USF.COMPS:BGC:1,2009-11-01T13:54:00Z,26.4040,-81.8810,25.71,1111122 
COMPS,ioos:station:USF.COMPS:BGC:1,2009-11-01T14:00:00Z,26.4040,-81.8810,25.9,1111122 
COMPS,ioos:station:USF.COMPS:BGC:1,2009-11-01T14:06:00Z,26.4040,-81.8810,26.15,1111122 
COMPS,ioos:station:USF.COMPS:BGC:1,2009-11-01T14:12:00Z,26.4040,-81.8810,26.22,1111122 
COMPS,ioos:station:USF.COMPS:BGC:1,2009-11-01T14:18:00Z,26.4040,-81.8810,26.36,1111122 
COMPS,ioos:station:USF.COMPS:BGC:1,2009-11-01T14:24:00Z,26.4040,-81.8810,26.47,1111122 
COMPS,ioos:station:USF.COMPS:BGC:1,2009-11-01T14:30:00Z,26.4040,-81.8810,26.51,1111122 
COMPS,ioos:station:USF.COMPS:BGC:1,2009-11-01T14:36:00Z,26.4040,-81.8810,26.66,1111122 
COMPS,ioos:station:USF.COMPS:BGC:1,2009-11-01T14:42:00Z,26.4040,-81.8810,26.77,1111122 
COMPS,ioos:station:USF.COMPS:BGC:1,2009-11-01T14:48:00Z,26.4040,-81.8810,26.81,1111122 
COMPS,ioos:station:USF.COMPS:BGC:1,2009-11-01T14:54:00Z,26.4040,-81.8810,27.18,1111122 
COMPS,ioos:station:USF.COMPS:BGC:1,2009-11-01T15:00:00Z,26.4040,-81.8810,27.19,1111122 
COMPS,ioos:station:USF.COMPS:BGC:1,2009-11-01T15:06:00Z,26.4040,-81.8810,27.15,1111122 
COMPS,ioos:station:USF.COMPS:BGC:1,2009-11-01T15:12:00Z,26.4040,-81.8810,27.36,1111122 
COMPS,ioos:station:USF.COMPS:BGC:1,2009-11-01T15:18:00Z,26.4040,-81.8810,27.39,1111122 
COMPS,ioos:station:USF.COMPS:BGC:1,2009-11-01T15:24:00Z,26.4040,-81.8810,27.58,1111122 
COMPS,ioos:station:USF.COMPS:BGC:1,2009-11-01T15:30:00Z,26.4040,-81.8810,27.68,1111122 
COMPS,ioos:station:USF.COMPS:BGC:1,2009-11-01T15:36:00Z,26.4040,-81.8810,27.77,1111122 
COMPS,ioos:station:USF.COMPS:BGC:1,2009-11-01T15:42:00Z,26.4040,-81.8810,27.82,1111122 
COMPS,ioos:station:USF.COMPS:BGC:1,2009-11-01T15:48:00Z,26.4040,-81.8810,28.03,1111122 
COMPS,ioos:station:USF.COMPS:BGC:1,2009-11-01T15:54:00Z,26.4040,-81.8810,28.07,1111122 
COMPS,ioos:station:USF.COMPS:BGC:1,2009-11-01T16:00:00Z,26.4040,-81.8810,28.11,1111122 
COMPS,ioos:station:USF.COMPS:BGC:1,2009-11-01T16:06:00Z,26.4040,-81.8810,28.17,1111122 
COMPS,ioos:station:USF.COMPS:BGC:1,2009-11-01T16:12:00Z,26.4040,-81.8810,28.42,1111122 
COMPS,ioos:station:USF.COMPS:BGC:1,2009-11-01T16:18:00Z,26.4040,-81.8810,28.43,1111122 
COMPS,ioos:station:USF.COMPS:BGC:1,2009-11-01T16:24:00Z,26.4040,-81.8810,28.5,1111122 
COMPS,ioos:station:USF.COMPS:BGC:1,2009-11-01T16:30:00Z,26.4040,-81.8810,28.67,1111122 
COMPS,ioos:station:USF.COMPS:BGC:1,2009-11-01T16:36:00Z,26.4040,-81.8810,28.64,1111122 
COMPS,ioos:station:USF.COMPS:BGC:1,2009-11-01T16:42:00Z,26.4040,-81.8810,28.84,1111122 
COMPS,ioos:station:USF.COMPS:BGC:1,2009-11-01T16:48:00Z,26.4040,-81.8810,29.12,1111122 
COMPS,ioos:station:USF.COMPS:BGC:1,2009-11-01T16:54:00Z,26.4040,-81.8810,29.19,1111122 
COMPS,ioos:station:USF.COMPS:BGC:1,2009-11-01T17:00:00Z,26.4040,-81.8810,29.35,1111122 
COMPS,ioos:station:USF.COMPS:BGC:1,2009-11-01T17:06:00Z,26.4040,-81.8810,29.38,1111122 
COMPS,ioos:station:USF.COMPS:BGC:1,2009-11-01T17:12:00Z,26.4040,-81.8810,29.29,1111122 
COMPS,ioos:station:USF.COMPS:BGC:1,2009-11-01T17:18:00Z,26.4040,-81.8810,28.43,1111122 
COMPS,ioos:station:USF.COMPS:BGC:1,2009-11-01T17:24:00Z,26.4040,-81.8810,28.44,1111122 
COMPS,ioos:station:USF.COMPS:BGC:1,2009-11-01T17:30:00Z,26.4040,-81.8810,28.51,1111122 
COMPS,ioos:station:USF.COMPS:BGC:1,2009-11-01T17:36:00Z,26.4040,-81.8810,28.4,1111122 
COMPS,ioos:station:USF.COMPS:BGC:1,2009-11-01T17:42:00Z,26.4040,-81.8810,28.36,1111122 
COMPS,ioos:station:USF.COMPS:BGC:1,2009-11-01T17:48:00Z,26.4040,-81.8810,28.69,1111122 
COMPS,ioos:station:USF.COMPS:BGC:1,2009-11-01T17:54:00Z,26.4040,-81.8810,28.81,1111122 
COMPS,ioos:station:USF.COMPS:BGC:1,2009-11-01T18:00:00Z,26.4040,-81.8810,28.95,1111122 
COMPS,ioos:station:USF.COMPS:BGC:1,2009-11-01T18:06:00Z,26.4040,-81.8810,29.17,1111122 
COMPS,ioos:station:USF.COMPS:BGC:1,2009-11-01T18:12:00Z,26.4040,-81.8810,29.07,1111122 
COMPS,ioos:station:USF.COMPS:BGC:1,2009-11-01T18:18:00Z,26.4040,-81.8810,29.2,1111122 
COMPS,ioos:station:USF.COMPS:BGC:1,2009-11-01T18:24:00Z,26.4040,-81.8810,29.21,1111122 
COMPS,ioos:station:USF.COMPS:BGC:1,2009-11-01T18:30:00Z,26.4040,-81.8810,28.85,1111122 
COMPS,ioos:station:USF.COMPS:BGC:1,2009-11-01T18:36:00Z,26.4040,-81.8810,28.88,1111122 
COMPS,ioos:station:USF.COMPS:BGC:1,2009-11-01T18:42:00Z,26.4040,-81.8810,28.69,1111122 
COMPS,ioos:station:USF.COMPS:BGC:1,2009-11-01T18:48:00Z,26.4040,-81.8810,28.64,1111122 
COMPS,ioos:station:USF.COMPS:BGC:1,2009-11-01T18:54:00Z,26.4040,-81.8810,28.64,1111122 
COMPS,ioos:station:USF.COMPS:BGC:1,2009-11-01T19:00:00Z,26.4040,-81.8810,28.37,1111122 
COMPS,ioos:station:USF.COMPS:BGC:1,2009-11-01T19:06:00Z,26.4040,-81.8810,28.46,1111122 
COMPS,ioos:station:USF.COMPS:BGC:1,2009-11-01T19:12:00Z,26.4040,-81.8810,28.67,1111122 
COMPS,ioos:station:USF.COMPS:BGC:1,2009-11-01T19:18:00Z,26.4040,-81.8810,28.79,1111122 
COMPS,ioos:station:USF.COMPS:BGC:1,2009-11-01T19:24:00Z,26.4040,-81.8810,28.91,1111122 
COMPS,ioos:station:USF.COMPS:BGC:1,2009-11-01T19:30:00Z,26.4040,-81.8810,28.88,1111122 
COMPS,ioos:station:USF.COMPS:BGC:1,2009-11-01T19:36:00Z,26.4040,-81.8810,28.98,1111122 
COMPS,ioos:station:USF.COMPS:BGC:1,2009-11-01T19:42:00Z,26.4040,-81.8810,28.98,1111122 
COMPS,ioos:station:USF.COMPS:BGC:1,2009-11-01T19:48:00Z,26.4040,-81.8810,28.97,1111122 
COMPS,ioos:station:USF.COMPS:BGC:1,2009-11-01T19:54:00Z,26.4040,-81.8810,28.85,1111122 
COMPS,ioos:station:USF.COMPS:BGC:1,2009-11-01T20:00:00Z,26.4040,-81.8810,29.0,1111122 
COMPS,ioos:station:USF.COMPS:BGC:1,2009-11-01T20:06:00Z,26.4040,-81.8810,29.12,1111122 
COMPS,ioos:station:USF.COMPS:BGC:1,2009-11-01T20:12:00Z,26.4040,-81.8810,28.99,1111122 
COMPS,ioos:station:USF.COMPS:BGC:1,2009-11-01T20:18:00Z,26.4040,-81.8810,28.73,1111122 
COMPS,ioos:station:USF.COMPS:BGC:1,2009-11-01T20:24:00Z,26.4040,-81.8810,28.7,1111122 
COMPS,ioos:station:USF.COMPS:BGC:1,2009-11-01T20:30:00Z,26.4040,-81.8810,28.63,1111122 
COMPS,ioos:station:USF.COMPS:BGC:1,2009-11-01T20:36:00Z,26.4040,-81.8810,28.65,1111122 
COMPS,ioos:station:USF.COMPS:BGC:1,2009-11-01T20:42:00Z,26.4040,-81.8810,28.65,1111122 
COMPS,ioos:station:USF.COMPS:BGC:1,2009-11-01T20:48:00Z,26.4040,-81.8810,28.65,1111122 
COMPS,ioos:station:USF.COMPS:BGC:1,2009-11-01T20:54:00Z,26.4040,-81.8810,28.58,1111122 
COMPS,ioos:station:USF.COMPS:BGC:1,2009-11-01T21:00:00Z,26.4040,-81.8810,28.61,1111122 
COMPS,ioos:station:USF.COMPS:BGC:1,2009-11-01T21:06:00Z,26.4040,-81.8810,28.56,1111122 
COMPS,ioos:station:USF.COMPS:BGC:1,2009-11-01T21:12:00Z,26.4040,-81.8810,28.69,1111122 
COMPS,ioos:station:USF.COMPS:BGC:1,2009-11-01T21:18:00Z,26.4040,-81.8810,28.53,1111122 
COMPS,ioos:station:USF.COMPS:BGC:1,2009-11-01T21:24:00Z,26.4040,-81.8810,28.57,1111122 
COMPS,ioos:station:USF.COMPS:BGC:1,2009-11-01T21:30:00Z,26.4040,-81.8810,28.57,1111122 
COMPS,ioos:station:USF.COMPS:BGC:1,2009-11-01T21:36:00Z,26.4040,-81.8810,28.37,1111122 
COMPS,ioos:station:USF.COMPS:BGC:1,2009-11-01T21:42:00Z,26.4040,-81.8810,28.2,1111122 
COMPS,ioos:station:USF.COMPS:BGC:1,2009-11-01T21:48:00Z,26.4040,-81.8810,28.27,1111122 
COMPS,ioos:station:USF.COMPS:BGC:1,2009-11-01T21:54:00Z,26.4040,-81.8810,28.19,1111122 
COMPS,ioos:station:USF.COMPS:BGC:1,2009-11-01T22:00:00Z,26.4040,-81.8810,27.94,1111122 
COMPS,ioos:station:USF.COMPS:BGC:1,2009-11-01T22:06:00Z,26.4040,-81.8810,27.82,1111122 
COMPS,ioos:station:USF.COMPS:BGC:1,2009-11-01T22:12:00Z,26.4040,-81.8810,27.59,1111122 
COMPS,ioos:station:USF.COMPS:BGC:1,2009-11-01T22:18:00Z,26.4040,-81.8810,27.54,1111122 
COMPS,ioos:station:USF.COMPS:BGC:1,2009-11-01T22:24:00Z,26.4040,-81.8810,27.43,1111122 
COMPS,ioos:station:USF.COMPS:BGC:1,2009-11-01T22:30:00Z,26.4040,-81.8810,27.26,1111122 
COMPS,ioos:station:USF.COMPS:BGC:1,2009-11-01T22:36:00Z,26.4040,-81.8810,27.16,1111122 
COMPS,ioos:station:USF.COMPS:BGC:1,2009-11-01T22:42:00Z,26.4040,-81.8810,27.16,1111122 
COMPS,ioos:station:USF.COMPS:BGC:1,2009-11-01T22:48:00Z,26.4040,-81.8810,27.12,1111122 
COMPS,ioos:station:USF.COMPS:BGC:1,2009-11-01T22:54:00Z,26.4040,-81.8810,27.03,1111122 
COMPS,ioos:station:USF.COMPS:BGC:1,2009-11-01T23:00:00Z,26.4040,-81.8810,26.9,1111122 
COMPS,ioos:station:USF.COMPS:BGC:1,2009-11-01T23:06:00Z,26.4040,-81.8810,26.87,1111122 
COMPS,ioos:station:USF.COMPS:BGC:1,2009-11-01T23:12:00Z,26.4040,-81.8810,26.85,1111122 
COMPS,ioos:station:USF.COMPS:BGC:1,2009-11-01T23:18:00Z,26.4040,-81.8810,26.73,1111122 
COMPS,ioos:station:USF.COMPS:BGC:1,2009-11-01T23:24:00Z,26.4040,-81.8810,26.59,1111122 
COMPS,ioos:station:USF.COMPS:BGC:1,2009-11-01T23:30:00Z,26.4040,-81.8810,26.53,1111122 
COMPS,ioos:station:USF.COMPS:BGC:1,2009-11-01T23:36:00Z,26.4040,-81.8810,26.38,1111122 
COMPS,ioos:station:USF.COMPS:BGC:1,2009-11-01T23:42:00Z,26.4040,-81.8810,26.34,1111122 
COMPS,ioos:station:USF.COMPS:BGC:1,2009-11-01T23:48:00Z,26.4040,-81.8810,26.34,1111122 
COMPS,ioos:station:USF.COMPS:BGC:1,2009-11-01T23:54:00Z,26.4040,-81.8810,26.2,1111122 
COMPS,ioos:station:USF.COMPS:BGC:1,2009-11-02T00:00:00Z,26.4040,-81.8810,26.08,1111122 
COMPS,ioos:station:USF.COMPS:BGC:1,2009-11-02T00:06:00Z,26.4040,-81.8810,23.69,1111122 
COMPS,ioos:station:USF.COMPS:BGC:1,2009-11-02T00:12:00Z,26.4040,-81.8810,25.85,1111122 
COMPS,ioos:station:USF.COMPS:BGC:1,2009-11-02T00:18:00Z,26.4040,-81.8810,25.83,1111122 
COMPS,ioos:station:USF.COMPS:BGC:1,2009-11-02T00:24:00Z,26.4040,-81.8810,25.82,1111122 
COMPS,ioos:station:USF.COMPS:BGC:1,2009-11-02T00:30:00Z,26.4040,-81.8810,25.82,1111122 
COMPS,ioos:station:USF.COMPS:BGC:1,2009-11-02T00:36:00Z,26.4040,-81.8810,25.85,1111122 
COMPS,ioos:station:USF.COMPS:BGC:1,2009-11-02T00:42:00Z,26.4040,-81.8810,25.87,1111122 
COMPS,ioos:station:USF.COMPS:BGC:1,2009-11-02T00:48:00Z,26.4040,-81.8810,25.91,1111122 
COMPS,ioos:station:USF.COMPS:BGC:1,2009-11-02T00:54:00Z,26.4040,-81.8810,25.96,1111122 
COMPS,ioos:station:USF.COMPS:BGC:1,2009-11-02T01:00:00Z,26.4040,-81.8810,25.99,1111122 
COMPS,ioos:station:USF.COMPS:BGC:1,2009-11-02T01:06:00Z,26.4040,-81.8810,25.99,1111122 
COMPS,ioos:station:USF.COMPS:BGC:1,2009-11-02T01:12:00Z,26.4040,-81.8810,26.0,1111122 
COMPS,ioos:station:USF.COMPS:BGC:1,2009-11-02T01:18:00Z,26.4040,-81.8810,25.89,1111122 
COMPS,ioos:station:USF.COMPS:BGC:1,2009-11-02T01:24:00Z,26.4040,-81.8810,25.82,1111122 
COMPS,ioos:station:USF.COMPS:BGC:1,2009-11-02T01:30:00Z,26.4040,-81.8810,25.8,1111122 
COMPS,ioos:station:USF.COMPS:BGC:1,2009-11-02T01:36:00Z,26.4040,-81.8810,25.69,1111122 
COMPS,ioos:station:USF.COMPS:BGC:1,2009-11-02T01:42:00Z,26.4040,-81.8810,25.65,1111122 
COMPS,ioos:station:USF.COMPS:BGC:1,2009-11-02T01:48:00Z,26.4040,-81.8810,25.57,1111122 
COMPS,ioos:station:USF.COMPS:BGC:1,2009-11-02T01:54:00Z,26.4040,-81.8810,25.53,1111122 
COMPS,ioos:station:USF.COMPS:BGC:1,2009-11-02T02:00:00Z,26.4040,-81.8810,25.5,1111122 
COMPS,ioos:station:USF.COMPS:BGC:1,2009-11-02T02:06:00Z,26.4040,-81.8810,25.48,1111122 
COMPS,ioos:station:USF.COMPS:BGC:1,2009-11-02T02:12:00Z,26.4040,-81.8810,25.51,1111122 
COMPS,ioos:station:USF.COMPS:BGC:1,2009-11-02T02:18:00Z,26.4040,-81.8810,25.57,1111122 
COMPS,ioos:station:USF.COMPS:BGC:1,2009-11-02T02:24:00Z,26.4040,-81.8810,25.45,1111122 
COMPS,ioos:station:USF.COMPS:BGC:1,2009-11-02T02:30:00Z,26.4040,-81.8810,25.44,1111122 
COMPS,ioos:station:USF.COMPS:BGC:1,2009-11-02T02:36:00Z,26.4040,-81.8810,25.46,1111122 
COMPS,ioos:station:USF.COMPS:BGC:1,2009-11-02T02:42:00Z,26.4040,-81.8810,25.37,1111122 
COMPS,ioos:station:USF.COMPS:BGC:1,2009-11-02T02:48:00Z,26.4040,-81.8810,25.41,1111122 
COMPS,ioos:station:USF.COMPS:BGC:1,2009-11-02T02:54:00Z,26.4040,-81.8810,25.43,1111122 
COMPS,ioos:station:USF.COMPS:BGC:1,2009-11-02T03:00:00Z,26.4040,-81.8810,25.4,1111122 
COMPS,ioos:station:USF.COMPS:BGC:1,2009-11-02T03:06:00Z,26.4040,-81.8810,25.34,1111122 
COMPS,ioos:station:USF.COMPS:BGC:1,2009-11-02T03:12:00Z,26.4040,-81.8810,25.27,1111122 
COMPS,ioos:station:USF.COMPS:BGC:1,2009-11-02T03:18:00Z,26.4040,-81.8810,25.33,1111122 
COMPS,ioos:station:USF.COMPS:BGC:1,2009-11-02T03:24:00Z,26.4040,-81.8810,25.32,1111122 
COMPS,ioos:station:USF.COMPS:BGC:1,2009-11-02T03:30:00Z,26.4040,-81.8810,25.31,1111122 
COMPS,ioos:station:USF.COMPS:BGC:1,2009-11-02T03:36:00Z,26.4040,-81.8810,25.29,1111122 
COMPS,ioos:station:USF.COMPS:BGC:1,2009-11-02T03:42:00Z,26.4040,-81.8810,25.23,1111122 
COMPS,ioos:station:USF.COMPS:BGC:1,2009-11-02T03:48:00Z,26.4040,-81.8810,25.2,1111122 
COMPS,ioos:station:USF.COMPS:BGC:1,2009-11-02T03:54:00Z,26.4040,-81.8810,25.09,1111122 
COMPS,ioos:station:USF.COMPS:BGC:1,2009-11-02T04:00:00Z,26.4040,-81.8810,25.18,1111122 
COMPS,ioos:station:USF.COMPS:BGC:1,2009-11-02T04:06:00Z,26.4040,-81.8810,25.12,1111122 